FW3849 Weather Reports


time (UTC)temp
C
wind
direction
speed
KPH
gust
KPH
rain 1hr
cm
rain 24hr
cm
rain mn
cm
humidity
%
barometer
mb
20260510192603 34 224 16.1 24.1 0.00 0.00 0.00 19 1008.4
20260510192059 34 191 14.5 27.4 0.00 0.00 0.00 19 1008.5
20260510191609 35 252 17.7 27.4 0.00 0.00 0.00 18 1008.5
20260510190555 34 212 16.1 24.1 0.00 0.00 0.00 20 1008.4
20260510190054 34 158 8.0 20.9 0.00 0.00 0.00 20 1008.5
20260510185554 34 199 9.7 25.7 0.00 0.00 0.00 20 1008.5
20260510185052 33 232 14.5 25.7 0.00 0.00 0.00 20 1008.5
20260510184552 33 227 14.5 24.1 0.00 0.00 0.00 21 1008.7
20260510184051 33 184 11.3 29.0 0.00 0.00 0.00 21 1008.6
20260510183552 33 204 16.1 25.7 0.00 0.00 0.00 22 1008.6
20260510183056 33 220 16.1 30.6 0.00 0.00 0.00 22 1008.7
20260510182551 33 215 17.7 30.6 0.00 0.00 0.00 22 1008.7
20260510182050 33 213 12.9 27.4 0.00 0.00 0.00 22 1008.8
20260510181550 33 229 11.3 27.4 0.00 0.00 0.00 22 1008.9
20260510180549 33 217 16.1 29.0 0.00 0.00 0.00 25 1009.0
20260510180049 33 210 16.1 30.6 0.00 0.00 0.00 25 1009.0
20260510175547 32 242 17.7 30.6 0.00 0.00 0.00 25 1009.3
20260510175048 32 238 14.5 27.4 0.00 0.00 0.00 27 1009.3
20260510174546 32 215 16.1 33.8 0.00 0.00 0.00 26 1009.3
20260510174046 32 199 16.1 29.0 0.00 0.00 0.00 28 1009.6
20260510173544 32 214 16.1 29.0 0.00 0.00 0.00 29 1009.5
20260510173053 31 206 12.9 30.6 0.00 0.00 0.00 28 1009.5
20260510172542 32 246 16.1 30.6 0.00 0.00 0.00 28 1009.7
20260510172042 31 228 16.1 27.4 0.00 0.00 0.00 30 1009.6
20260510171548 31 206 17.7 29.0 0.00 0.00 0.00 31 1009.6
20260510170540 31 191 17.7 29.0 0.00 0.00 0.00 30 1009.5
20260510170039 31 205 17.7 25.7 0.00 0.00 0.00 31 1009.6
20260510165538 31 223 14.5 27.4 0.00 0.00 0.00 32 1009.5
20260510165037 31 187 17.7 24.1 0.00 0.00 0.00 33 1009.4
20260510164544 30 200 16.1 30.6 0.00 0.00 0.00 34 1009.4
20260510164035 30 198 17.7 30.6 0.00 0.00 0.00 33 1009.5
20260510163534 30 200 19.3 29.0 0.00 0.00 0.00 34 1009.4
20260510163034 30 183 12.9 29.0 0.00 0.00 0.00 35 1009.3
20260510162532 30 216 17.7 29.0 0.00 0.00 0.00 35 1009.4
20260510162032 30 191 19.3 32.2 0.00 0.00 0.00 35 1009.5
20260510161531 29 225 19.3 29.0 0.00 0.00 0.00 36 1009.6
20260510160535 29 218 17.7 32.2 0.00 0.00 0.00 36 1009.6
20260510160034 29 191 17.7 37.0 0.00 0.00 0.00 37 1009.7
20260510155530 29 212 19.3 37.0 0.00 0.00 0.00 37 1009.6
20260510155027 28 192 22.5 30.6 0.00 0.00 0.00 38 1009.6
20260510154527 28 194 19.3 35.4 0.00 0.00 0.00 38 1009.6
20260510154026 28 208 19.3 35.4 0.00 0.00 0.00 39 1009.7
20260510153524 28 209 22.5 30.6 0.00 0.00 0.00 39 1009.6
20260510153033 28 187 19.3 32.2 0.00 0.00 0.00 40 1009.7
20260510152521 28 210 22.5 37.0 0.00 0.00 0.00 40 1009.7
20260510152020 27 223 20.9 37.0 0.00 0.00 0.00 41 1009.6
20260510151520 27 197 17.7 30.6 0.00 0.00 0.00 43 1009.7
20260510150521 27 177 17.7 35.4 0.00 0.00 0.00 44 1009.6
20260510150021 27 210 22.5 35.4 0.00 0.00 0.00 44 1009.6
20260510145520 27 202 19.3 33.8 0.00 0.00 0.00 44 1009.5
20260510145022 27 211 19.3 33.8 0.00 0.00 0.00 44 1009.4
20260510144527 27 209 17.7 30.6 0.00 0.00 0.00 45 1009.4
20260510144017 26 216 22.5 35.4 0.00 0.00 0.00 45 1009.4
20260510143518 26 223 19.3 35.4 0.00 0.00 0.00 46 1009.4
20260510143019 26 179 20.9 35.4 0.00 0.00 0.00 46 1009.5
20260510142514 26 218 22.5 32.2 0.00 0.00 0.00 47 1009.6
20260510142016 26 210 17.7 33.8 0.00 0.00 0.00 48 1009.5
20260510141514 25 189 16.1 30.6 0.00 0.00 0.00 49 1009.4
20260510140508 25 193 17.7 27.4 0.00 0.00 0.00 50 1009.4
20260510140007 24 209 16.1 24.1 0.00 0.00 0.00 51 1009.4
20260510135507 24 199 12.9 24.1 0.00 0.00 0.00 53 1009.4
20260510135004 23 218 11.3 24.1 0.00 0.00 0.00 53 1009.5
20260510134503 23 193 11.3 17.7 0.00 0.00 0.00 53 1009.6
20260510134001 23 189 11.3 20.9 0.00 0.00 0.00 54 1009.6
20260510133601 23 198 12.9 20.9 0.00 0.00 0.00 54 1009.4
20260510133117 23 196 11.3 19.3 0.00 0.00 0.00 54 1009.5
20260510132559 23 229 11.3 19.3 0.00 0.00 0.00 54 1009.4
20260510132101 23 191 11.3 19.3 0.00 0.00 0.00 55 1009.5
20260510131604 22 200 8.0 16.1 0.00 0.00 0.00 55 1009.3
20260510130558 22 164 6.4 16.1 0.00 0.00 0.00 56 1009.0
20260510130058 22 189 6.4 17.7 0.00 0.00 0.00 56 1009.0
20260510125555 22 194 8.0 17.7 0.00 0.00 0.00 56 1009.0
20260510125055 22 195 6.4 17.7 0.00 0.00 0.00 56 1008.9
20260510124559 21 185 9.7 16.1 0.00 0.00 0.00 57 1008.8
20260510124055 21 231 8.0 14.5 0.00 0.00 0.00 57 1008.9
20260510123555 21 196 6.4 12.9 0.00 0.00 0.00 58 1008.9
20260510123101 21 203 4.8 12.9 0.00 0.00 0.00 57 1008.9
20260510122556 21 189 6.4 12.9 0.00 0.00 0.00 58 1008.8
20260510122053 21 188 6.4 12.9 0.00 0.00 0.00 57 1008.8
20260510121553 21 206 6.4 12.9 0.00 0.00 0.00 57 1008.8
20260510120549 21 191 6.4 16.1 0.00 0.00 0.00 57 1008.6
20260510120049 21 191 9.7 16.1 0.00 0.00 0.00 56 1008.6
20260510115550 21 216 8.0 22.5 0.00 0.00 0.00 55 1008.6
20260510115048 22 201 9.7 22.5 0.00 0.00 0.00 55 1008.5
20260510114548 22 188 12.9 19.3 0.00 0.00 0.00 54 1008.5
20260510114047 22 183 9.7 24.1 0.00 0.00 0.00 54 1008.5
20260510113548 22 185 12.9 24.1 0.00 0.00 0.00 55 1008.5
20260510113047 21 196 11.3 20.9 0.00 0.00 0.00 54 1008.5
20260510112547 21 200 11.3 19.3 0.00 0.00 0.00 55 1008.5
20260510112048 21 192 8.0 14.5 0.00 0.00 0.00 54 1008.5
20260510111546 21 171 4.8 16.1 0.00 0.00 0.00 54 1008.5
20260510110549 22 174 9.7 17.7 0.00 0.00 0.00 54 1008.5
20260510110045 21 175 6.4 17.7 0.00 0.00 0.00 54 1008.3
20260510105545 21 169 9.7 17.7 0.00 0.00 0.00 54 1008.4
20260510105043 21 152 8.0 14.5 0.00 0.00 0.00 55 1008.4
20260510104543 21 164 4.8 9.7 0.00 0.00 0.00 55 1008.3
20260510104041 21 189 4.8 9.7 0.00 0.00 0.00 54 1008.3
20260510103540 21 166 4.8 16.1 0.00 0.00 0.00 54 1008.3
20260510103043 22 189 4.8 17.7 0.00 0.00 0.00 53 1008.2
20260510102539 22 189 9.7 20.9 0.00 0.00 0.00 54 1008.1
20260510102037 21 191 12.9 20.9 0.00 0.00 0.00 54 1008.0
20260510101539 21 191 6.4 16.1 0.00 0.00 0.00 55 1008.1
20260510100538 21 190 4.8 9.7 0.00 0.00 0.00 54 1007.9
20260510100037 21 188 4.8 9.7 0.00 0.00 0.00 53 1008.0
20260510095538 22 183 6.4 16.1 0.00 0.00 0.00 53 1007.9
20260510095037 22 201 9.7 17.7 0.00 0.00 0.00 53 1008.0
20260510094537 21 173 11.3 17.7 0.00 0.00 0.00 54 1007.9
20260510094037 21 212 6.4 16.1 0.00 0.00 0.00 54 1007.9
20260510093537 21 191 9.7 16.1 0.00 0.00 0.00 54 1007.8
20260510093037 21 189 6.4 14.5 0.00 0.00 0.00 54 1007.9
20260510092539 21 198 6.4 14.5 0.00 0.00 0.00 54 1007.8
20260510092037 21 184 6.4 14.5 0.00 0.00 0.00 54 1007.8
20260510091535 21 202 4.8 12.9 0.00 0.00 0.00 54 1007.8
20260510090540 21 191 4.8 12.9 0.00 0.00 0.00 54 1007.8
20260510090040 21 183 4.8 9.7 0.00 0.00 0.00 53 1007.8
20260510085543 21 187 4.8 9.7 0.00 0.00 0.00 53 1007.9
20260510085039 21 181 4.8 8.0 0.00 0.00 0.00 53 1008.0
20260510084539 21 187 4.8 9.7 0.00 0.00 0.00 52 1008.0
20260510084039 21 192 3.2 9.7 0.00 0.00 0.00 52 1008.0
20260510083539 21 190 1.6 9.7 0.00 0.00 0.00 51 1008.1
20260510083039 21 195 6.4 9.7 0.00 0.00 0.00 51 1008.0
20260510082539 21 171 4.8 9.7 0.00 0.00 0.00 51 1008.0
20260510082039 22 168 6.4 11.3 0.00 0.00 0.00 50 1008.0
20260510081545 22 183 4.8 12.9 0.00 0.00 0.00 49 1008.1
20260510080536 22 166 3.2 12.9 0.00 0.00 0.00 49 1008.2
20260510080037 22 204 4.8 9.7 0.00 0.00 0.00 49 1008.2
20260510075537 22 162 4.8 11.3 0.00 0.00 0.00 48 1008.3
20260510075040 22 179 4.8 12.9 0.00 0.00 0.00 48 1008.3
20260510074537 22 146 8.0 11.3 0.00 0.00 0.00 48 1008.3
20260510074037 22 177 4.8 11.3 0.00 0.00 0.00 48 1008.3
20260510073537 22 175 4.8 11.3 0.00 0.00 0.00 48 1008.4
20260510073049 22 162 4.8 12.9 0.00 0.00 0.00 48 1008.3
20260510072536 22 149 4.8 12.9 0.00 0.00 0.00 47 1008.4
20260510072036 22 196 3.2 11.3 0.00 0.00 0.00 48 1008.4
20260510071536 22 189 6.4 12.9 0.00 0.00 0.00 48 1008.5
20260510070533 22 192 4.8 11.3 0.00 0.00 0.00 49 1008.5
20260510070034 22 158 4.8 9.7 0.00 0.00 0.00 49 1008.4
20260510065536 22 155 4.8 9.7 0.00 0.00 0.00 48 1008.5
20260510065037 22 147 4.8 11.3 0.00 0.00 0.00 47 1008.5
20260510064541 23 168 6.4 11.3 0.00 0.00 0.00 47 1008.5
20260510064033 23 185 8.0 16.1 0.00 0.00 0.00 46 1008.7
20260510063532 23 180 9.7 16.1 0.00 0.00 0.00 46 1008.6
20260510063039 23 194 9.7 14.5 0.00 0.00 0.00 47 1008.7
20260510062533 23 181 6.4 9.7 0.00 0.00 0.00 47 1008.7
20260510062032 23 182 4.8 14.5 0.00 0.00 0.00 46 1008.8
20260510061532 23 181 4.8 12.9 0.00 0.00 0.00 46 1008.8
20260510060532 23 191 6.4 12.9 0.00 0.00 0.00 46 1008.9
20260510060033 23 191 4.8 8.0 0.00 0.00 0.00 45 1009.0
20260510055531 23 183 4.8 8.0 0.00 0.00 0.00 45 1009.0
20260510055031 23 188 3.2 8.0 0.00 0.00 0.00 44 1009.1
20260510054531 23 200 4.8 8.0 0.00 0.00 0.00 43 1009.1
20260510054035 24 170 3.2 6.4 0.00 0.00 0.00 42 1008.9
20260510053530 25 183 3.2 8.0 0.00 0.00 0.00 41 1008.9
20260510053035 25 137 3.2 17.7 0.00 0.00 0.00 40 1009.0
20260510052532 25 177 6.4 17.7 0.00 0.00 0.00 39 1009.0
20260510052031 25 199 8.0 17.7 0.00 0.00 0.00 39 1009.1
20260510051534 24 171 6.4 16.1 0.00 0.00 0.00 41 1009.1
20260510050535 23 187 8.0 16.1 0.00 0.00 0.00 42 1008.9
20260510050030 23 160 4.8 9.7 0.00 0.00 0.00 41 1008.9
20260510045530 23 165 1.6 6.4 0.00 0.00 0.00 40 1008.9
20260510045033 23 189 3.2 6.4 0.00 0.00 0.00 39 1008.9
20260510044539 23 152 3.2 6.4 0.00 0.00 0.00 38 1008.9
20260510044031 23 179 3.2 9.7 0.00 0.00 0.00 37 1008.8
20260510043529 23 204 4.8 11.3 0.00 0.00 0.00 36 1008.8
20260510043028 23 187 8.0 11.3 0.00 0.00 0.00 36 1008.8
20260510042528 23 197 3.2 6.4 0.00 0.00 0.00 36 1008.8
20260510042028 23 197 3.2 8.0 0.00 0.00 0.00 35 1008.8
20260510041528 24 189 6.4 12.9 0.00 0.00 0.00 33 1008.8
20260510040529 25 202 6.4 12.9 0.00 0.00 0.00 32 1008.8
20260510040031 25 200 8.0 12.9 0.00 0.00 0.00 32 1008.6
20260510035527 25 199 4.8 11.3 0.00 0.00 0.00 32 1008.6
20260510035030 25 193 6.4 9.7 0.00 0.00 0.00 32 1008.7
20260510034534 25 191 4.8 12.9 0.00 0.00 0.00 32 1008.6
20260510034030 25 159 6.4 12.9 0.00 0.00 0.00 31 1008.5
20260510033527 26 228 6.4 9.7 0.00 0.00 0.00 31 1008.6
20260510033026 26 213 4.8 14.5 0.00 0.00 0.00 30 1008.5
20260510032529 26 184 6.4 14.5 0.00 0.00 0.00 30 1008.4
20260510032027 26 177 6.4 17.7 0.00 0.00 0.00 29 1008.4
20260510031532 26 193 4.8 9.7 0.00 0.00 0.00 30 1008.3
20260510030526 26 182 4.8 9.7 0.00 0.00 0.00 30 1008.3
20260510030027 26 200 6.4 11.3 0.00 0.00 0.00 30 1008.2
20260510025526 26 185 4.8 9.7 0.00 0.00 0.00 29 1008.3
20260510025026 27 191 3.2 9.7 0.00 0.00 0.00 29 1008.2
20260510024527 27 191 4.8 9.7 0.00 0.00 0.00 29 1008.2
20260510024025 27 191 4.8 8.0 0.00 0.00 0.00 28 1008.2
20260510023525 27 177 4.8 9.7 0.00 0.00 0.00 28 1008.1
20260510023025 27 183 4.8 9.7 0.00 0.00 0.00 28 1008.1
20260510022525 27 190 3.2 8.0 0.00 0.00 0.00 27 1008.1
20260510022025 27 179 3.2 6.4 0.00 0.00 0.00 27 1008.1
20260510021534 28 158 1.6 6.4 0.00 0.00 0.00 26 1007.9
20260510020525 28 158 3.2 9.7 0.00 0.00 0.00 25 1007.8
20260510020024 28 165 3.2 9.7 0.00 0.00 0.00 25 1007.7
20260510015524 29 189 1.6 8.0 0.00 0.00 0.00 24 1007.6
20260510015028 29 191 3.2 11.3 0.00 0.00 0.00 24 1007.6
20260510014524 30 176 6.4 12.9 0.00 0.00 0.00 23 1007.5
20260510014027 30 183 4.8 8.0 0.00 0.00 0.00 23 1007.4
20260510013524 30 206 4.8 9.7 0.00 0.00 0.00 22 1007.2
20260510013023 30 206 4.8 11.3 0.00 0.00 0.00 22 1007.2
20260510012523 31 196 4.8 12.9 0.00 0.00 0.00 22 1007.2
20260510012023 31 199 6.4 14.5 0.00 0.00 0.00 21 1007.1
20260510011522 31 209 8.0 16.1 0.00 0.00 0.00 21 1007.1
20260510010523 31 204 6.4 17.7 0.00 0.00 0.00 20 1007.0
20260510010024 31 189 6.4 17.7 0.00 0.00 0.00 19 1006.9
20260510005523 32 181 9.7 16.1 0.00 0.00 0.00 18 1006.9
20260510005023 32 170 4.8 19.3 0.00 0.00 0.00 18 1006.9
20260510004522 32 175 9.7 19.3 0.00 0.00 0.00 17 1006.9
20260510004023 32 198 8.0 19.3 0.00 0.00 0.00 18 1006.8
20260510003522 32 202 8.0 20.9 0.00 0.00 0.00 17 1006.8
20260510003026 32 204 9.7 20.9 0.00 0.00 0.00 16 1006.7
20260510002522 32 212 11.3 20.9 0.00 0.00 0.00 14 1006.7
20260510002021 32 193 6.4 17.7 0.00 0.00 0.00 16 1006.7
20260510001523 32 180 8.0 16.1 0.00 0.00 0.00 15 1006.8
20260510000521 33 243 9.7 17.7 0.00 0.00 0.00 14 1006.8
20260510000021 33 227 9.7 17.7 0.00 0.00 0.00 15 1006.7
20260509235520 33 222 8.0 17.7 0.00 0.00 0.00 15 1006.7
20260509235019 33 237 11.3 17.7 0.00 0.00 0.00 14 1006.7
20260509234524 33 281 6.4 19.3 0.00 0.00 0.00 13 1006.7
20260509234018 33 244 11.3 20.9 0.00 0.00 0.00 13 1006.7
20260509233518 33 260 14.5 22.5 0.00 0.00 0.00 13 1006.7
20260509233118 33 248 12.9 22.5 0.00 0.00 0.00 14 1006.7
20260509232517 33 239 6.4 14.5 0.00 0.00 0.00 14 1006.9
20260509232017 33 212 8.0 22.5 0.00 0.00 0.00 15 1006.9
20260509231516 33 214 12.9 22.5 0.00 0.00 0.00 14 1006.9
20260509230516 33 189 11.3 17.7 0.00 0.00 0.00 13 1006.9
20260509230015 33 237 8.0 16.1 0.00 0.00 0.00 16 1006.9
20260509225515 33 238 6.4 17.7 0.00 0.00 0.00 17 1006.9
20260509225019 33 233 3.2 17.7 0.00 0.00 0.00 16 1007.0
20260509224513 33 231 6.4 17.7 0.00 0.00 0.00 16 1007.1
20260509224014 33 247 9.7 17.7 0.00 0.00 0.00 16 1007.2
20260509223512 33 193 9.7 20.9 0.00 0.00 0.00 17 1007.2
20260509223012 33 200 12.9 19.3 0.00 0.00 0.00 16 1007.1
20260509222511 33 192 9.7 22.5 0.00 0.00 0.00 17 1007.2
20260509222011 32 203 8.0 19.3 0.00 0.00 0.00 17 1007.2
20260509221511 33 202 9.7 20.9 0.00 0.00 0.00 18 1007.3
20260509220513 33 204 6.4 20.9 0.00 0.00 0.00 18 1007.3
20260509220013 33 224 12.9 20.9 0.00 0.00 0.00 18 1007.4
20260509215513 32 231 11.3 19.3 0.00 0.00 0.00 19 1007.4
20260509215012 32 238 9.7 20.9 0.00 0.00 0.00 20 1007.4
20260509214511 33 244 11.3 19.3 0.00 0.00 0.00 18 1007.5
20260509214011 32 202 8.0 19.3 0.00 0.00 0.00 17 1007.5
20260509213511 32 258 9.7 19.3 0.00 0.00 0.00 19 1007.5
20260509213010 32 215 12.9 17.7 0.00 0.00 0.00 20 1007.6
20260509212509 32 225 8.0 22.5 0.00 0.00 0.00 20 1007.7
20260509212109 32 208 22.5 22.5 0.00 0.00 0.00 20 1007.7
20260509211512 32 226 4.8 16.1 0.00 0.00 0.00 18 1007.7
20260509210505 32 231 8.0 16.1 0.00 0.00 0.00 18 1008.0
20260509210009 32 245 9.7 16.1 0.00 0.00 0.00 18 1008.1
20260509205502 32 250 4.8 20.9 0.00 0.00 0.00 21 1008.3
20260509205001 32 142 8.0 20.9 0.00 0.00 0.00 21 1008.4
20260509204501 32 287 3.2 16.1 0.00 0.00 0.00 20 1008.5
20260509204101 32 229 4.8 19.3 0.00 0.00 0.00 20 1008.6
20260509204001 32 218 8.0 19.3 0.00 0.00 0.00 19 1008.6
20260509203602 32 212 11.3 19.3 0.00 0.00 0.00 20 1008.6
20260509203058 32 252 9.7 19.3 0.00 0.00 0.00 21 1008.7
20260509202600 32 185 9.7 19.3 0.00 0.00 0.00 21 1008.7
20260509202057 32 204 8.0 12.9 0.00 0.00 0.00 24 1008.8
20260509201601 31 277 14.5 22.5 0.00 0.00 0.00 23 1009.0
20260509200554 31 226 9.7 17.7 0.00 0.00 0.00 24 1009.0
20260509195552 31 164 4.8 17.7 0.00 0.00 0.00 25 1009.3
20260509195051 31 183 8.0 25.7 0.00 0.00 0.00 25 1009.3
20260509194551 31 229 12.9 25.7 0.00 0.00 0.00 26 1009.4
20260509194051 31 239 6.4 19.3 0.00 0.00 0.00 27 1009.4
20260509193550 31 148 4.8 19.3 0.00 0.00 0.00 27 1009.5
20260509193050 31 239 12.9 22.5 0.00 0.00 0.00 27 1009.6